Location: Bern�tre
(50.1974°N, 2.0915°E)
Time: 08:05:06
(UTC+00:00)

Meteor 2-5 Rocket - Pass Details

Date: 18 September 2020
Orbit: 833 x 912 km, 81.2° (Epoch: 24 October)

Event Time Altitude Azimuth Distance (km) Brightness Sun altitude
Rises 20:20:18 0° 346° (NNW) 3,413 7.5 -22.4°
Reaches altitude 10° 20:22:42 10° 346° (NNW) 2,482 6.7 -22.7°
Maximum altitude 20:28:20 82° 260° (W) 873 3.7 -23.5°
Enters shadow 20:30:28 41° 178° (S) 1,241 4.2 -23.7°
